Location: Veytaux
(46.4185°N, 6.9320°E)
Time: 09:08:22
(UTC+00:00)

USA 307 - Pass Details

Date: 27 May 2022
Orbit: 552 x 554 km, 54.0° (Epoch: 17 June)

Event Time Altitude Azimuth Distance (km) Brightness Sun altitude
Exits shadow 01:43:46 11° 271° (W) 1,767 5.1 -15.8°
Maximum altitude 01:47:31 40° 341° (NNW) 831 4.0 -15.5°
Drops below altitude 10° 01:51:30 10° 52° (NE) 1,845 6.7 -15.1°
Sets 01:53:51 0° 60° (ENE) 2,743 7.6 -14.8°
